Location: doobydoo
(53.3403°N, 2.6908°W)
Time: 19:02:26
(UTC+00:00)

ISS - Pass Details

Date: 24 November 2021
Orbit: 413 x 422 km, 51.6° (Epoch: 18 January)

Event Time Altitude Azimuth Distance (km) Brightness Sun altitude
Rises 18:11:46 0° 240° (WSW) 2,379 1.4 -18.5°
Reaches altitude 10° 18:13:55 10° 234° (SW) 1,514 0.0 -18.9°
Maximum altitude 18:17:10 43° 161° (SSE) 606 -3.1 -19.3°
Enters shadow 18:17:15 43° 157° (SSE) 607 -3.1 -19.4°
